Clarksville, TN

1:33 AM CDT on August 20, 2017 (GMT -0500)
Outlaw

Weather History for KCKV - July, 2013

Change the Weather History Date:

Sunday, July 7, 2013

  Actual Average Record
Temperature  
Mean Temperature 76 °F 78 °F  
Max Temperature 86 °F 89 °F 102 °F (1954)
Min Temperature 65 °F 67 °F 51 °F (1972)
Degree Days  
Heating Degree Days 0    
Month to date heating degree days 0  
Since 1 June heating degree days  
Since 1 July heating degree days 0  
Cooling Degree Days 11    
Month to date cooling degree days 48  
Year to date cooling degree days  
Since 1 June cooling degree days  
Growing Degree Days 24 (Base 50)    
Moisture  
Dew Point 68 °F    
Average Humidity 78    
Maximum Humidity 100    
Minimum Humidity 55    
Precipitation  
Precipitation T in 0.12 in 3.34 in (2016)
Month to date precipitation 2.67 0.81  
Year to date precipitation 26.91  
Sea Level Pressure  
Sea Level Pressure 30.09 in    
Wind  
Wind Speed 3 mph (South)    
Max Wind Speed 8 mph    
Max Gust Speed 14 mph    
Visibility 10 miles    
Events Rain    
T = Trace of Precipitation, MM = Missing Value Source: NWS Daily Summary

Daily Weather History Graph

Daily Weather History Graph

Search for Another Location

Airport or City:

Trip Planner

Search our weather history database for the weather conditions in past years. The results will help you decide how hot, cold, wet, or windy it might be!

Date:

Astronomy

Jul. 07, 2013 Rise Set
Actual Time 5:37 AM CDT 8:11 PM CDT
Civil Twilight 5:07 AM CDT 8:41 PM CDT
Nautical Twilight 4:30 AM CDT 9:18 PM CDT
Astronomical Twilight 3:48 AM CDT 10:00 PM CDT
Moon 5:12 AM CDT (7/7) 7:36 PM CDT (7/7)
Length of Visible Light 15h 33m
Length of Day
14h 33m
Waning Crescent, 0% of the Moon is Illuminated
Jul 7
Waning Crescent
Jul 8
New
Jul 15
First Quarter
Jul 22
Full
Jul 29
Last Quarter

Hourly Weather History & Observations

Time (CDT) Temp. Heat Index Dew Point Humidity Pressure Visibility Wind Dir Wind Speed Gust Speed Precip Events Conditions
12:42 AM 66.2 °F - 64.4 °F 94% 30.08 in 10.0 mi SSE 4.6 mph - 0.01 in Rain Light Rain
12:52 AM 66.0 °F - 64.9 °F 96% 30.06 in 10.0 mi SE 3.5 mph - 0.01 in   Mostly Cloudy
1:52 AM 66.0 °F - 64.9 °F 96% 30.06 in 10.0 mi South 5.8 mph - 0.00 in   Scattered Clouds
2:52 AM 66.0 °F - 64.9 °F 96% 30.05 in 10.0 mi South 4.6 mph - N/A   Clear
3:52 AM 66.0 °F - 64.0 °F 93% 30.06 in 10.0 mi SSW 3.5 mph - N/A   Clear
4:52 AM 66.0 °F - 64.0 °F 93% 30.06 in 10.0 mi Calm Calm - N/A   Overcast
5:52 AM 64.9 °F - 64.0 °F 97% 30.07 in 10.0 mi Calm Calm - N/A   Scattered Clouds
6:52 AM 66.9 °F - 64.9 °F 93% 30.09 in 10.0 mi Calm Calm - N/A   Mostly Cloudy
7:52 AM 71.1 °F - 66.9 °F 87% 30.11 in 10.0 mi SSW 3.5 mph - N/A   Clear
8:36 AM 73.4 °F - 68.0 °F 83% 30.12 in 10.0 mi SSW 5.8 mph - N/A   Partly Cloudy
8:52 AM 73.9 °F - 69.1 °F 85% 30.12 in 10.0 mi SSW 6.9 mph - N/A   Partly Cloudy
9:23 AM 73.4 °F - 69.8 °F 88% 30.13 in 10.0 mi Variable 3.5 mph - N/A   Mostly Cloudy
9:52 AM 75.9 °F - 69.1 °F 79% 30.12 in 10.0 mi Variable 4.6 mph - N/A   Mostly Cloudy
10:06 AM 77.0 °F - 69.8 °F 78% 30.13 in 10.0 mi Calm Calm - N/A   Mostly Cloudy
10:16 AM 77.0 °F - 69.8 °F 78% 30.13 in 10.0 mi Calm Calm - N/A   Scattered Clouds
10:52 AM 79.0 °F - 71.1 °F 77% 30.12 in 10.0 mi South 3.5 mph - N/A   Scattered Clouds
11:13 AM 80.6 °F 84.6 °F 71.6 °F 74% 30.13 in 10.0 mi Variable 3.5 mph - N/A   Mostly Cloudy
11:52 AM 80.1 °F 83.6 °F 71.1 °F 74% 30.11 in 10.0 mi SE 6.9 mph - N/A   Mostly Cloudy
12:40 PM 82.4 °F 87.2 °F 71.6 °F 70% 30.11 in 10.0 mi SSW 3.5 mph - N/A   Scattered Clouds
12:52 PM 81.0 °F 84.9 °F 71.1 °F 72% 30.10 in 10.0 mi South 3.5 mph - N/A   Scattered Clouds
1:52 PM 84.9 °F 88.8 °F 69.1 °F 59% 30.08 in 10.0 mi Calm Calm - N/A   Clear
2:52 PM 84.0 °F 87.0 °F 68.0 °F 58% 30.08 in 10.0 mi Variable 3.5 mph - N/A   Mostly Cloudy
3:52 PM 84.9 °F 88.2 °F 68.0 °F 57% 30.06 in 10.0 mi SW 5.8 mph - N/A   Clear
4:52 PM 84.9 °F 87.1 °F 66.0 °F 53% 30.05 in 10.0 mi SSW 6.9 mph - N/A   Clear
5:52 PM 84.9 °F 88.2 °F 68.0 °F 57% 30.04 in 10.0 mi West 3.5 mph - N/A   Clear
6:52 PM 84.0 °F 87.0 °F 68.0 °F 58% 30.05 in 10.0 mi Calm Calm - N/A   Clear
7:52 PM 82.0 °F 84.9 °F 68.0 °F 62% 30.06 in 10.0 mi Calm Calm - N/A   Clear
8:52 PM 73.9 °F - 70.0 °F 87% 30.08 in 10.0 mi Calm Calm - N/A   Clear
9:52 PM 72.0 °F - 70.0 °F 93% 30.10 in 10.0 mi SE 3.5 mph - N/A   Clear
10:52 PM 71.1 °F - 69.1 °F 93% 30.11 in 10.0 mi Calm Calm - N/A   Clear
11:52 PM 71.1 °F - 69.1 °F 93% 30.10 in 6.0 mi Calm Calm - N/A   Clear